DW9556 Weather Reports


Display with metric or nautical units.
time (UTC)temp
F
wind
direction
speed
MPH
gust
MPH
rain 1hr
in
rain 24hr
in
rain mn
in
humidity
%
barometer
mb
20260504023039 59 247 0.0 0.0 0.00 0.00 0.00 64 1006.6
20260504021520 60 260 0.0 0.0 0.00 0.00 0.00 62 1006.6
20260504020031 61 260 0.0 0.0 0.00 0.00 0.00 60 1006.4
20260504014502 61 250 0.0 0.0 0.00 0.00 0.00 59 1006.3
20260504013002 62 190 0.0 0.0 0.00 0.00 0.00 58 1006.4
20260504011545 62 250 0.0 0.0 0.00 0.00 0.00 57 1006.3
20260504010044 63 249 0.0 0.0 0.00 0.00 0.00 56 1006.3
20260504004531 64 252 0.0 0.0 0.00 0.00 0.00 54 1006.2
20260504003030 65 240 0.0 0.0 0.00 0.00 0.00 52 1006.2
20260504001534 66 269 0.0 0.0 0.00 0.00 0.00 51 1006.4
20260504000027 67 256 0.0 0.0 0.00 0.00 0.00 49 1006.5
20260503234529 67 268 0.0 0.0 0.00 0.00 0.00 48 1006.4
20260503233026 67 237 0.0 0.0 0.00 0.00 0.00 47 1006.5
20260503231528 67 240 0.0 0.0 0.00 0.00 0.00 46 1006.6
20260503230036 67 253 0.0 0.0 0.00 0.00 0.00 45 1006.8
20260503224506 67 313 0.0 0.0 0.00 0.00 0.00 45 1006.9
20260503223006 68 229 0.0 0.0 0.00 0.00 0.00 44 1006.8
20260503221611 68 269 0.0 0.0 0.00 0.00 0.00 44 1006.9
20260503220047 68 263 0.0 0.0 0.00 0.00 0.00 43 1006.8
20260503214546 68 256 0.0 0.0 0.00 0.00 0.00 43 1006.9
20260503213026 68 255 0.0 0.0 0.00 0.00 0.00 44 1007.0
20260503211523 66 173 0.0 0.0 0.00 0.00 0.00 45 1007.1
20260503210006 66 219 0.0 0.0 0.00 0.00 0.00 43 1007.4
20260503204503 66 278 0.0 0.0 0.00 0.00 0.00 44 1007.7
20260503203045 67 213 0.0 0.0 0.00 0.00 0.00 43 1007.9
20260503201540 66 249 0.0 0.0 0.00 0.00 0.00 44 1008.2
20260503200020 65 69 0.0 0.0 0.00 0.00 0.00 44 1008.5
20260503194518 65 188 0.0 0.0 0.00 0.00 0.00 43 1008.8
20260503193115 64 216 0.0 0.0 0.00 0.00 0.00 44 1009.1
20260503191611 63 182 0.0 0.0 0.00 0.00 0.00 43 1009.2
20260503190037 64 274 0.0 0.0 0.00 0.00 0.00 41 1009.3
20260503184635 64 238 0.0 0.0 0.00 0.00 0.00 42 1009.6
20260503183014 63 225 0.0 0.0 0.00 0.00 0.00 47 1009.9
20260503181510 61 84 0.0 0.0 0.00 0.00 0.00 49 1010.4
20260503180057 60 228 0.0 0.0 0.00 0.00 0.00 52 1011.1
20260503174552 59 246 0.0 0.0 0.00 0.00 0.00 55 1011.4
20260503173023 57 161 0.0 0.0 0.00 0.00 0.00 59 1011.9
20260503171519 56 135 0.0 0.0 0.00 0.00 0.00 60 1012.4
20260503170117 55 144 0.0 0.0 0.00 0.00 0.00 61 1012.7
20260503081512 42 265 0.0 0.0 0.00 0.00 0.00 72 1015.4
20260503080103 42 103 0.0 0.0 0.00 0.00 0.00 72 1015.4
20260503071531 43 235 0.0 0.0 0.00 0.00 0.00 69 1015.6
20260503054608 44 188 0.0 0.0 0.00 0.00 0.00 66 1016.5
20260503053051 44 194 0.0 0.0 0.00 0.00 0.00 66 1016.5
20260503051549 44 164 0.0 0.0 0.00 0.00 0.00 66 1016.7
20260503050047 44 164 0.0 0.0 0.00 0.00 0.00 65 1016.7
20260503044547 45 277 0.0 0.0 0.00 0.00 0.00 64 1016.8
20260503043038 45 344 0.0 0.0 0.00 0.00 0.00 64 1016.8
20260503041528 45 344 0.0 0.0 0.00 0.00 0.00 64 1016.9
20260503040008 45 343 0.0 0.0 0.00 0.00 0.00 65 1016.9
20260503034507 45 343 0.0 0.0 0.00 0.00 0.00 65 1017.0
20260503033047 45 343 0.0 0.0 0.00 0.00 0.00 64 1016.9
20260503031545 46 343 0.0 0.0 0.00 0.00 0.00 62 1017.0
20260503030029 46 343 0.0 0.0 0.00 0.00 0.00 61 1017.1
20260503024526 47 344 0.0 0.0 0.00 0.00 0.00 61 1017.1